Location: Newark
(40.9833°N, 0.0333°W)
Time: 07:45:09
(UTC+00:00)

Vanguard 2 Rocket - Pass Details

Date: 27 October 2020
Orbit: 554 x 3326 km, 32.9° (Epoch: 25 November)

Event Time Altitude Azimuth Distance (km) Brightness Sun altitude
Rises 19:26:03 0° 245° (WSW) 2,743 10.2 -27.8°
Reaches altitude 10° 19:28:13 10° 234° (SW) 1,929 9.1 -28.2°
Enters shadow 19:30:25 25° 208° (SSW) 1,308 7.8 -28.6°
Maximum altitude 19:32:02 32° 170° (S) 1,199 - -28.9°
Drops below altitude 10° 19:37:18 10° 108° (ESE) 2,690 - -29.9°
Sets 19:40:52 0° 100° (E) 4,053 - -30.5°
